When you browse on this site, cookies collect data to enhance your experience and personalize the content and advertising you see.
Visit our Privacy Policy to learn more. By continuing to use the site, you agree to this use of cookies and data.
  • In Norway
  • List of Countries
  • For 7 days
  • Water Temperature
  • Satellite Maps
  • Weather Map
  • Weather Widgets
  • user-avatar
    Login

    Hourly Weather Godowo

    Today, 10 December, Monday

    Time Temperature Precipitation Wind Pressure Humidity
    00:00 +4°C° 0.3 mm 8 mps 740 mmHg 79%
    01:00 +2°C° 0.3 mm 8 mps 741 mmHg 76%
    02:00 +3°C° 0 mm 7 mps 742 mmHg 76%
    03:00 +3°C° 0 mm 7 mps 742 mmHg 76%
    04:00 +2°C° 0 mm 6 mps 743 mmHg 76%
    05:00 +2°C° 0 mm 6 mps 743 mmHg 75%
    06:00 +2°C° 0 mm 7 mps 744 mmHg 75%
    07:00 +2°C° 0 mm 7 mps 744 mmHg 74%
    08:00 +2°C° 0 mm 7 mps 745 mmHg 73%
    09:00 +1°C° 0 mm 8 mps 745 mmHg 71%
    10:00 +2°C° 0 mm 8 mps 745 mmHg 70%
    11:00 +2°C° 0.1 mm 8 mps 746 mmHg 68%
    12:00 +2°C° 0.1 mm 8 mps 746 mmHg 66%
    13:00 +2°C° 0.1 mm 8 mps 746 mmHg 65%
    14:00 +3°C° 0.1 mm 7 mps 746 mmHg 67%
    15:00 +2°C° 0.1 mm 7 mps 746 mmHg 69%
    16:00 +2°C° 0.1 mm 6 mps 746 mmHg 71%
    17:00 +2°C° 0 mm 6 mps 746 mmHg 73%
    18:00 +1°C° 0 mm 6 mps 746 mmHg 74%
    19:00 +1°C° 0 mm 5 mps 746 mmHg 76%
    20:00 +1°C° 0.3 mm 6 mps 746 mmHg 76%
    21:00 +2°C° 0.3 mm 6 mps 746 mmHg 76%
    22:00 +2°C° 0.3 mm 6 mps 746 mmHg 76%
    23:00 +2°C° 0.4 mm 6 mps 746 mmHg 76%

    Tomorrow, 11 December, Tuesday

    Time Temperature Precipitation Wind Pressure Humidity
    00:00 +2°C° 0.4 mm 6 mps 746 mmHg 76%
    01:00 +2°C° 0.4 mm 6 mps 746 mmHg 76%
    02:00 +2°C° 0.4 mm 6 mps 746 mmHg 77%
    03:00 +2°C° 0.4 mm 5 mps 746 mmHg 79%
    04:00 +2°C° 0.4 mm 5 mps 746 mmHg 80%
    05:00 +1°C° 0.2 mm 5 mps 747 mmHg 81%
    06:00 +1°C° 0.2 mm 5 mps 747 mmHg 82%
    07:00 +1°C° 0.2 mm 5 mps 747 mmHg 83%
    08:00 +1°C° 0.2 mm 5 mps 748 mmHg 82%
    09:00 +1°C° 0.2 mm 6 mps 749 mmHg 81%
    10:00 +2°C° 0.2 mm 6 mps 749 mmHg 81%
    11:00 +2°C° 0.2 mm 6 mps 750 mmHg 80%
    12:00 +2°C° 0.2 mm 6 mps 750 mmHg 79%
    13:00 +2°C° 0.2 mm 6 mps 751 mmHg 78%
    14:00 +2°C° 0.2 mm 6 mps 751 mmHg 80%
    15:00 +2°C° 0.2 mm 5 mps 752 mmHg 81%
    16:00 +2°C° 0.2 mm 5 mps 753 mmHg 83%
    17:00 +1°C° 0.1 mm 4 mps 753 mmHg 84%
    18:00 +1°C° 0.1 mm 4 mps 754 mmHg 85%
    19:00 +1°C° 0.1 mm 4 mps 754 mmHg 86%
    20:00 +2°C° 0 mm 3 mps 755 mmHg 88%
    21:00 +1°C° 0 mm 3 mps 755 mmHg 89%
    22:00 +2°C° 0 mm 2 mps 755 mmHg 90%
    23:00 +2°C° 0.1 mm 2 mps 756 mmHg 91%

    Day after tomorrow, 12 December, Wednesday

    Time Temperature Precipitation Wind Pressure Humidity
    00:00 +2°C° 0.1 mm 2 mps 756 mmHg 91%
    01:00 +3°C° 0.1 mm 1 mps 756 mmHg 92%
    02:00 +3°C° 0 mm 1 mps 756 mmHg 92%
    03:00 +3°C° 0 mm 1 mps 757 mmHg 92%
    04:00 +2°C° 0 mm 1 mps 757 mmHg 91%
    05:00 +2°C° 0 mm 1 mps 757 mmHg 91%
    06:00 +2°C° 0 mm 1 mps 757 mmHg 91%
    07:00 +2°C° 0 mm 1 mps 758 mmHg 91%
    08:00 +3°C° 0.1 mm 1 mps 758 mmHg 89%
    09:00 +2°C° 0.1 mm 2 mps 758 mmHg 88%
    10:00 +3°C° 0.1 mm 2 mps 758 mmHg 87%
    11:00 +3°C° 0.1 mm 2 mps 758 mmHg 86%
    12:00 +3°C° 0.1 mm 3 mps 758 mmHg 85%
    13:00 +3°C° 0.1 mm 3 mps 758 mmHg 84%
    14:00 +2°C° 0.1 mm 3 mps 758 mmHg 86%
    15:00 +3°C° 0.1 mm 2 mps 758 mmHg 89%
    16:00 +2°C° 0.1 mm 2 mps 758 mmHg 91%
    17:00 +2°C° 0 mm 2 mps 758 mmHg 91%
    18:00 +1°C° 0 mm 2 mps 759 mmHg 92%
    19:00 +1°C° 0 mm 2 mps 759 mmHg 92%
    20:00 +1°C° 0 mm 2 mps 759 mmHg 93%
    21:00 -1°C° 0 mm 2 mps 759 mmHg 93%
    22:00 -1°C° 0 mm 2 mps 759 mmHg 93%
    23:00 -1°C° 0 mm 2 mps 759 mmHg 93%

    13 December, Thursday

    Time Temperature Precipitation Wind Pressure Humidity
    00:00 -1°C° 0 mm 2 mps 759 mmHg 93%
    01:00 -2°C° 0 mm 2 mps 759 mmHg 94%
    02:00 -1°C° 0 mm 2 mps 759 mmHg 93%
    03:00 -1°C° 0 mm 2 mps 759 mmHg 93%
    04:00 -1°C° 0 mm 2 mps 759 mmHg 93%
    05:00 -2°C° 0 mm 2 mps 759 mmHg 93%
    06:00 -2°C° 0 mm 2 mps 759 mmHg 93%
    07:00 -2°C° 0 mm 2 mps 759 mmHg 93%
    08:00 -1°C° 0 mm 2 mps 759 mmHg 91%
    09:00 -1°C° 0 mm 2 mps 759 mmHg 89%
    10:00 -1°C° 0 mm 3 mps 759 mmHg 87%
    11:00 0°C° 0 mm 3 mps 759 mmHg 85%
    12:00 +1°C° 0 mm 2 mps 758 mmHg 82%
    13:00 +1°C° 0 mm 2 mps 758 mmHg 80%
    14:00 +1°C° 0 mm 2 mps 758 mmHg 81%
    15:00 +1°C° 0 mm 2 mps 758 mmHg 82%
    16:00 +1°C° 0 mm 2 mps 758 mmHg 83%
    17:00 -1°C° 0 mm 2 mps 757 mmHg 84%
    18:00 -1°C° 0 mm 2 mps 757 mmHg 85%
    19:00 -1°C° 0 mm 2 mps 757 mmHg 85%
    20:00 -1°C° 0.1 mm 2 mps 757 mmHg 86%
    21:00 -1°C° 0.1 mm 2 mps 757 mmHg 87%
    22:00 -1°C° 0.1 mm 2 mps 757 mmHg 88%
    23:00 -1°C° 0 mm 2 mps 757 mmHg 88%

    14 December, Friday

    Time Temperature Precipitation Wind Pressure Humidity
    00:00 -1°C° 0 mm 2 mps 757 mmHg 89%
    01:00 -2°C° 0 mm 2 mps 757 mmHg 89%
    02:00 -2°C° 0 mm 2 mps 757 mmHg 89%
    03:00 -2°C° 0 mm 2 mps 757 mmHg 89%
    04:00 -2°C° 0 mm 2 mps 757 mmHg 89%
    05:00 -2°C° 0 mm 2 mps 757 mmHg 90%
    06:00 -2°C° 0 mm 2 mps 757 mmHg 90%
    07:00 -2°C° 0 mm 2 mps 757 mmHg 90%
    08:00 -2°C° 0 mm 2 mps 758 mmHg 89%
    09:00 -1°C° 0 mm 2 mps 758 mmHg 88%
    10:00 -1°C° 0 mm 3 mps 758 mmHg 87%
    11:00 -1°C° 0 mm 3 mps 758 mmHg 84%
    12:00 -1°C° 0 mm 3 mps 758 mmHg 82%
    13:00 0°C° 0 mm 3 mps 758 mmHg 79%
    14:00 -1°C° 0 mm 3 mps 758 mmHg 81%
    15:00 -1°C° 0 mm 2 mps 758 mmHg 84%
    16:00 -2°C° 0 mm 2 mps 758 mmHg 86%
    17:00 -2°C° 0 mm 2 mps 758 mmHg 87%
    18:00 -2°C° 0 mm 3 mps 758 mmHg 88%
    19:00 -4°C° 0 mm 3 mps 758 mmHg 89%
    20:00 -4°C° 0 mm 3 mps 759 mmHg 89%
    21:00 -3°C° 0 mm 2 mps 759 mmHg 90%
    22:00 -3°C° 0 mm 2 mps 759 mmHg 90%
    23:00 -2°C° 0 mm 2 mps 759 mmHg 90%

    15 December, Saturday

    Time Temperature Precipitation Wind Pressure Humidity
    00:00 -2°C° 0 mm 2 mps 759 mmHg 90%
    01:00 -2°C° 0 mm 2 mps 759 mmHg 90%
    02:00 -2°C° 0 mm 2 mps 759 mmHg 89%
    03:00 -2°C° 0 mm 3 mps 759 mmHg 89%
    04:00 -2°C° 0 mm 3 mps 759 mmHg 88%
    05:00 -2°C° 0 mm 3 mps 759 mmHg 88%
    06:00 -2°C° 0 mm 3 mps 760 mmHg 88%
    07:00 -4°C° 0 mm 3 mps 760 mmHg 88%
    08:00 -2°C° 0 mm 3 mps 760 mmHg 87%
    09:00 -2°C° 0 mm 3 mps 760 mmHg 85%
    10:00 -2°C° 0 mm 3 mps 761 mmHg 83%
    11:00 -1°C° 0 mm 3 mps 761 mmHg 82%
    12:00 -1°C° 0 mm 3 mps 761 mmHg 80%
    13:00 -1°C° 0 mm 3 mps 761 mmHg 78%
    14:00 -1°C° 0 mm 3 mps 761 mmHg 80%
    15:00 -2°C° 0 mm 3 mps 761 mmHg 83%
    16:00 -2°C° 0 mm 3 mps 761 mmHg 86%
    17:00 -2°C° 0 mm 3 mps 761 mmHg 85%
    18:00 -2°C° 0 mm 3 mps 761 mmHg 84%
    19:00 -2°C° 0 mm 3 mps 761 mmHg 83%
    20:00 -4°C° 0 mm 3 mps 761 mmHg 83%
    21:00 -4°C° 0 mm 3 mps 760 mmHg 84%
    22:00 -4°C° 0 mm 3 mps 760 mmHg 84%
    23:00 -4°C° 0 mm 3 mps 760 mmHg 85%
    Show more